Ubon Ratchathani, Thailand

3:55 PM +07 on June 26, 2017 (GMT +0700)
Ubon Ratchathani

Weather History for VTUU - February, 2012

Change the Weather History Date:

Thursday, February 9, 2012

  Actual Average Record
Temperature  
Mean Temperature 80 °F -  
Max Temperature 95 °F 93 °F - ()
Min Temperature 64 °F 68 °F - ()
Cooling Degree Days 14    
Growing Degree Days 30 (Base 50)    
Moisture  
Dew Point 64 °F    
Average Humidity 61    
Maximum Humidity 88    
Minimum Humidity 38    
Precipitation  
Precipitation 0.00 in 0.02 in - ()
Sea Level Pressure  
Sea Level Pressure 29.84 in    
Wind  
Wind Speed 3 mph ()    
Max Wind Speed 6 mph    
Max Gust Speed -    
Visibility 5.7 miles    
Events      
T = Trace of Precipitation, MM = Missing Value Source: Averaged Metar Reports

Daily Weather History Graph

Daily Weather History Graph

Search for Another Location

Airport or City:

Trip Planner

Search our weather history database for the weather conditions in past years. The results will help you decide how hot, cold, wet, or windy it might be!

Date:

Astronomy

Feb. 09, 2012 Rise Set
Actual Time 6:27 AM +07 6:01 PM +07
Civil Twilight 6:05 AM +07 6:23 PM +07
Nautical Twilight 5:40 AM +07 6:49 PM +07
Astronomical Twilight 5:14 AM +07 7:14 PM +07
Moon 7:25 PM +07 (2/9) 7:07 AM +07 (2/9)
Length of Visible Light 12h 18m
Length of Day
11h 33m
Full, 98% of the Moon is Illuminated
Feb 9
Full
Feb 15
Last Quarter
Feb 22
New
Mar 1
First Quarter
Mar 8
Full

Hourly Weather History & Observations

Time (+07) Temp. Heat Index Dew Point Humidity Pressure Visibility Wind Dir Wind Speed Gust Speed Precip Events Conditions
12:00 AM 73.4 °F - 64.4 °F 73% 29.89 in 5.6 mi North 4.6 mph - N/A   Unknown
1:00 AM 71 °F - 63 °F 68% 29.88 in 6 mi NNE 4.6 mph - -   Mist
1:00 AM 71.6 °F - 62.6 °F 73% 29.86 in 5.6 mi NNE 4.6 mph - N/A   Unknown
2:00 AM 69.8 °F - 62.6 °F 78% 29.86 in 5.6 mi NNE 3.5 mph - N/A   Unknown
3:00 AM 69.8 °F - 64.4 °F 83% 29.83 in 5.6 mi NE 3.5 mph - N/A   Unknown
4:00 AM 68.0 °F - 62.6 °F 83% 29.83 in 5.6 mi NNE 3.5 mph - N/A   Unknown
5:00 AM 68.0 °F - 64.4 °F 88% 29.83 in 5.0 mi ENE 3.5 mph - N/A   Unknown
6:00 AM 68.0 °F - 62.6 °F 83% 29.86 in 5.6 mi NE 2.3 mph - N/A   Unknown
7:00 AM 67 °F - 62 °F 78% 29.90 in 6 mi ENE 2.3 mph - -   Mist
7:00 AM 66.2 °F - 62.6 °F 88% 29.89 in 5.6 mi ENE 2.3 mph - N/A   Unknown
8:00 AM 69.8 °F - 60.8 °F 73% 29.89 in 5.6 mi NNE 3.5 mph - N/A   Unknown
9:00 AM 75.2 °F - 62.6 °F 65% 29.89 in - ENE 3.5 mph - N/A   Clear
10:00 AM 80.6 °F 81.5 °F 60.8 °F 51% 29.89 in - SSW 3.5 mph - N/A   Clear
11:00 AM 84.2 °F 87.3 °F 68.0 °F 58% 29.89 in - SSW 5.8 mph - N/A   Clear
12:00 PM 87.8 °F 90.4 °F 66.2 °F 49% 29.86 in - SE 1.2 mph - N/A   Clear
1:00 PM 89 °F - 67 °F 38% 29.84 in 6 mi South 2.3 mph - -   Scattered Clouds
1:00 PM 89.6 °F 92.2 °F 66.2 °F 46% 29.83 in - South 2.3 mph - N/A   Clear
2:00 PM 89.6 °F 92.2 °F 66.2 °F 46% 29.80 in - WSW 3.5 mph - N/A   Clear
3:00 PM 91.4 °F 94.0 °F 66.2 °F 43% 29.77 in - East 1.2 mph - N/A   Clear
4:00 PM 91.4 °F 94.0 °F 66.2 °F 43% 29.77 in - SE 2.3 mph - N/A   Clear
5:00 PM 91.4 °F 94.0 °F 66.2 °F 43% 29.77 in 5.6 mi NNE 3.5 mph - N/A   Unknown
6:00 PM 89.6 °F 91.1 °F 64.4 °F 43% 29.77 in 5.6 mi NNW 2.3 mph - N/A   Unknown
7:00 PM 86 °F - 66 °F 42% 29.82 in 6 mi NE 1.2 mph - -   Haze
7:00 PM 86.0 °F 88.2 °F 66.2 °F 51% 29.80 in 5.6 mi NE 1.2 mph - N/A   Unknown
8:00 PM 84.2 °F 85.6 °F 64.4 °F 51% 29.83 in 5.6 mi ENE 1.2 mph - N/A   Unknown
9:00 PM 82.4 °F 84.6 °F 66.2 °F 58% 29.86 in 5.6 mi NNE 1.2 mph - N/A   Unknown
10:00 PM 80.6 °F 82.7 °F 66.2 °F 61% 29.86 in 5.6 mi NE 1.2 mph - N/A   Unknown